GFSSW_sfc_rhum_024.txt.gz
RH
68 69 67 66 67 69 72 71 76 78 77 77 77 79 81 84 81 34 18 33 40 61 57 31 22 23 24 34 38 42 47 38 28 27 29 18 17 14 15 23 18 15 24 22 26
76 73 72 72 72 74 77 78 77 76 78 79 78 78 77 84 44 16 40 47 56 60 21 17 20 20 27 30 35 39 46 32 20 20 23 19 17 17 14 18 16 14 15 21 24
75 77 78 78 78 77 78 79 78 77 78 78 83 84 82 71 32 24 51 52 55 46 17 15 16 20 27 30 25 30 36 24 18 18 17 20 18 14 16 22 20 19 14 20 25
71 72 76 77 77 76 77 79 77 77 76 79 83 84 84 37 19 22 52 50 54 31 15 14 17 27 33 25 20 29 19 16 20 18 19 21 17 18 18 19 15 13 13 15 24
77 78 79 79 78 78 79 79 78 76 78 82 81 83 44 26 16 21 47 43 20 14 15 18 17 26 25 18 17 18 17 15 17 19 19 18 21 21 19 16 13 12 13 15 19
79 80 80 80 81 81 81 80 79 79 82 80 79 82 38 15 10 12 11 11 12 14 17 18 19 19 20 19 22 18 19 18 15 15 15 16 20 20 17 14 13 13 14 14 14
79 80 79 81 81 82 81 80 81 81 81 78 78 34 19 18 11 10 12 12 12 14 18 17 19 21 21 24 19 20 21 19 17 14 18 20 22 19 15 13 14 13 11 12 14
78 78 78 80 81 81 82 82 83 84 80 80 79 29 16 13 14 11 10 9 11 13 17 23 21 23 23 21 17 17 19 28 16 18 24 19 30 21 13 13 14 13 11 13 11
78 79 79 78 80 81 82 82 80 77 74 69 34 22 18 26 12 10 11 11 12 13 22 12 22 28 27 31 28 23 21 20 17 13 20 20 24 18 14 12 12 13 11 11 11
81 81 81 81 81 81 83 80 70 70 54 21 15 17 10 13 13 10 11 12 15 16 19 22 25 28 28 26 31 20 16 14 16 13 13 19 18 15 14 14 17 15 14 14 12
82 82 82 82 81 82 66 33 36 30 18 21 16 14 14 12 11 10 10 12 14 17 24 27 28 26 21 21 17 16 16 17 16 15 19 24 22 18 16 18 21 22 20 22 21
81 81 82 81 84 82 56 28 29 29 25 19 18 17 16 16 15 12 11 15 19 23 19 23 32 22 18 18 21 21 22 23 20 19 19 23 23 19 17 22 25 25 24 22 20
82 82 80 82 80 56 28 32 29 25 28 21 19 17 18 18 16 16 13 15 18 21 20 26 21 18 17 21 21 22 23 25 27 24 22 25 27 27 24 25 21 20 19 18 18
82 80 77 76 53 27 31 30 31 28 29 26 21 19 17 17 21 15 14 18 19 22 22 23 18 18 24 22 20 29 23 25 28 32 37 23 40 27 26 27 23 22 22 21 19
79 76 76 80 33 28 32 31 32 34 40 22 22 15 15 18 19 22 17 19 24 22 24 24 21 25 27 22 22 27 27 30 32 34 35 33 41 26 25 31 28 27 23 16 18
84 79 74 42 29 33 32 32 35 37 33 31 23 23 21 20 21 20 21 23 24 29 25 23 18 22 25 24 24 24 30 28 27 31 48 30 33 28 28 30 22 16 13 12 16
83 84 60 26 35 32 33 33 35 34 24 30 29 23 22 25 21 22 27 36 36 40 34 27 22 24 25 26 30 32 36 44 42 59 53 23 28 28 28 18 15 14 14 14 14
83 86 46 22 30 34 32 32 36 27 32 26 25 21 26 26 24 16 26 34 31 30 36 36 34 26 20 27 34 31 35 45 48 39 43 27 36 30 18 14 14 15 16 16 16
84 33 18 17 30 32 34 31 45 32 23 26 23 23 31 28 19 15 34 44 39 32 36 34 30 21 18 24 26 29 36 28 41 34 41 33 23 22 17 16 18 17 16 18 18
40 17 18 15 26 31 32 45 32 20 19 19 27 24 23 22 18 14 18 34 36 30 27 26 30 14 22 22 20 27 23 32 32 38 38 22 22 23 24 22 21 19 17 15 17
40 26 13 14 19 29 32 39 26 15 21 24 23 17 24 23 14 12 19 39 32 32 28 25 27 23 18 22 20 25 23 22 26 27 38 49 37 22 22 24 22 19 15 17 25
28 22 13 11 20 18 31 26 40 17 15 22 23 24 22 19 18 15 21 36 36 33 25 25 33 28 20 17 20 22 20 22 55 52 50 61 51 21 22 21 20 18 15 20 27
18 18 14 11 14 18 21 24 23 20 24 21 25 23 18 20 24 18 21 44 40 32 36 34 31 42 30 35 29 31 29 32 32 57 62 68 53 23 22 21 19 18 21 24 26
19 22 15 12 12 14 15 16 27 27 23 22 24 22 21 19 21 24 22 32 40 32 37 40 39 34 52 43 35 38 33 30 33 60 50 47 40 29 25 24 20 22 24 29 29
24 28 26 19 14 12 12 12 22 26 20 20 27 24 24 22 19 20 25 24 26 41 36 44 50 37 36 35 36 38 38 35 37 37 48 41 36 29 23 19 21 20 28 31 32
27 26 19 18 11 11 26 15 16 19 18 20 20 28 25 28 27 32 30 29 32 32 36 40 58 50 57 41 38 39 35 34 33 32 31 27 28 20 21 19 22 33 33 35 33
23 24 30 32 15 13 21 19 22 18 24 23 24 26 28 32 36 33 34 34 34 40 43 47 61 69 76 40 44 58 35 29 28 26 28 37 34 28 39 45 42 42 38 35 42

GFSSW_sfc_rhum_027.txt.gz
RH
67 68 67 66 67 70 73 74 76 78 79 79 79 81 83 86 83 60 29 41 53 62 60 38 37 29 32 39 43 40 42 46 33 29 28 23 21 18 16 22 21 23 31 25 32
74 72 72 72 73 76 79 80 78 78 78 81 80 79 78 86 66 37 44 51 58 61 32 26 25 23 31 33 40 42 52 34 25 26 23 22 22 22 17 17 18 18 19 32 36
75 76 78 78 78 78 79 79 78 78 78 79 85 85 84 84 51 38 53 53 53 53 31 23 21 30 33 31 30 32 35 30 24 20 27 23 23 24 22 22 19 21 19 25 40
72 74 76 77 77 77 78 81 78 78 77 81 85 86 85 61 28 34 51 48 51 44 32 21 24 35 33 32 24 29 25 24 25 23 23 24 24 23 22 20 19 19 16 27 32
78 79 79 79 79 79 80 81 79 78 80 85 83 84 59 46 24 27 47 40 39 22 22 24 25 30 33 26 22 25 23 23 24 25 22 20 24 24 22 20 18 16 16 17 21
79 79 79 81 82 81 81 81 79 80 85 82 79 84 58 32 15 22 16 15 17 19 21 24 28 26 27 26 30 25 25 25 24 21 21 20 23 27 20 19 17 17 18 18 17
78 78 79 81 82 82 82 82 80 82 83 78 80 48 36 23 16 16 15 17 18 22 26 24 25 30 30 29 26 21 27 27 24 22 22 22 25 19 17 16 19 17 17 17 16
79 79 79 80 81 82 82 84 86 84 82 81 80 47 26 19 21 15 14 15 15 17 25 27 26 32 32 28 27 24 29 30 20 20 29 19 28 21 18 17 14 14 15 13 30
80 80 80 80 81 81 83 84 83 80 78 77 54 46 30 30 18 14 17 17 16 17 22 14 29 33 29 39 38 32 28 24 20 16 27 25 26 21 18 16 16 16 17 26 27
81 83 82 82 83 84 86 81 78 74 57 35 26 25 17 19 20 16 15 17 22 22 26 32 33 36 38 40 40 28 24 20 21 16 19 26 27 23 22 20 27 28 28 26 25
82 84 85 82 82 84 78 50 48 41 37 31 27 22 19 16 17 17 16 17 22 27 32 33 32 32 31 28 25 25 27 27 26 22 28 29 29 21 26 30 26 24 23 23 24
83 83 84 83 85 83 71 57 42 40 35 28 23 22 22 23 23 17 15 24 26 29 26 31 35 26 27 26 26 26 30 33 30 28 26 30 29 31 25 26 24 23 23 23 24
83 84 82 83 82 65 49 46 40 36 39 28 26 24 25 26 25 22 19 24 25 30 30 34 31 23 24 29 27 31 34 36 37 35 32 32 35 39 28 24 22 24 23 24 28
83 83 80 78 58 46 47 41 43 40 45 35 32 27 24 27 31 21 21 26 27 30 28 30 24 25 33 31 30 36 34 34 37 43 43 33 54 39 34 31 30 25 24 29 32
84 78 79 81 50 45 45 43 41 46 63 33 31 22 21 28 28 31 23 25 33 34 32 30 30 34 35 35 32 34 34 38 41 49 59 44 51 50 37 28 20 17 16 21 31
84 81 77 63 59 47 46 44 48 45 49 42 32 30 30 27 28 32 30 29 32 38 37 33 26 28 34 29 30 31 38 32 39 49 55 38 45 48 41 25 21 21 19 18 20
84 83 74 35 50 43 46 51 49 52 33 40 39 30 30 34 28 28 38 39 45 40 48 37 34 33 22 32 36 34 43 58 44 61 59 33 33 43 22 21 21 22 21 20 20
82 82 50 28 44 46 52 50 60 39 39 34 33 29 38 30 32 23 38 52 42 41 52 43 41 36 20 36 41 41 42 60 63 64 62 34 38 40 20 21 22 21 21 20 21
83 63 40 25 36 47 53 63 64 39 26 30 31 37 45 37 26 25 50 58 44 40 48 56 44 22 29 30 31 37 39 32 44 50 57 51 35 27 24 26 24 23 22 22 21
63 39 24 19 36 50 52 57 34 24 27 30 41 33 38 29 23 17 48 42 45 39 39 36 36 24 29 28 27 32 29 40 42 43 49 38 33 43 31 31 26 23 21 22 26
59 42 20 17 36 51 65 47 29 20 27 32 37 32 34 29 23 18 48 45 42 43 38 31 35 27 20 27 29 29 30 30 34 38 49 59 50 32 36 30 26 22 21 22 31
49 31 17 19 30 45 48 36 41 27 26 28 32 33 28 29 28 24 47 50 47 41 39 36 42 43 26 26 26 26 27 28 60 52 63 85 58 32 30 26 24 23 21 25 35
23 24 18 18 24 42 36 33 34 32 32 31 36 32 26 31 32 28 50 54 46 42 49 44 39 56 30 43 34 36 33 36 43 72 77 80 47 27 26 26 24 23 25 31 34
36 32 30 24 25 28 25 30 38 36 32 27 31 32 31 30 31 36 37 51 47 39 41 42 53 42 51 48 48 52 46 42 46 91 58 53 45 33 30 28 26 27 30 38 39
41 35 40 29 20 21 20 24 32 39 27 26 36 32 32 34 31 34 35 37 49 45 49 53 67 55 50 47 48 49 49 46 50 47 60 46 43 34 30 33 42 44 42 42 39
47 37 33 30 20 20 34 26 27 25 29 29 32 32 33 39 40 43 46 40 41 49 43 48 64 62 64 53 51 54 46 45 46 44 42 39 40 32 35 59 54 52 47 45 41
60 53 40 39 24 27 32 29 31 28 31 32 32 36 41 48 49 49 46 45 47 52 52 56 72 81 88 58 58 72 52 43 40 37 41 45 38 57 60 53 49 47 47 45 42

GFSSW_sfc_rhum_030.txt.gz
RH
68 68 68 66 67 71 73 75 76 80 79 79 80 80 81 86 82 57 32 40 52 63 59 40 38 37 37 38 44 44 36 45 34 32 25 24 21 21 19 19 17 23 27 29 38
72 71 72 72 73 76 79 81 80 78 78 80 80 80 78 86 66 41 42 51 58 59 30 30 27 27 31 38 43 44 45 27 27 28 24 24 28 23 20 22 21 17 18 34 44
75 73 78 79 79 80 80 80 78 77 78 79 84 85 82 85 47 37 53 54 52 50 36 33 26 33 36 35 36 39 33 31 27 24 29 25 23 26 25 24 21 20 21 18 47
73 76 77 78 78 77 78 81 78 77 77 80 85 86 86 67 26 33 48 49 52 45 32 28 28 36 36 33 30 33 28 28 28 29 27 26 22 24 23 20 20 20 21 21 37
75 80 80 80 80 80 80 81 80 77 79 82 81 84 61 39 26 26 47 40 30 26 26 28 29 35 34 31 24 28 26 24 25 28 27 26 23 27 23 20 21 21 20 22 25
78 80 80 81 82 82 81 81 78 79 84 80 78 82 56 30 18 27 22 16 20 21 26 27 32 31 32 31 34 28 29 29 27 26 23 23 26 24 20 21 17 21 25 35 34
78 78 78 80 82 82 81 81 80 81 81 78 78 55 38 24 20 17 17 18 18 23 29 29 31 29 35 31 30 25 25 24 23 24 26 27 26 25 20 21 16 17 36 32 31
79 79 80 81 80 80 82 83 86 86 83 80 78 52 26 20 22 17 17 18 16 19 26 27 27 36 36 30 29 26 28 30 20 18 25 21 31 21 20 21 20 35 37 31 29
79 80 79 80 81 81 82 82 81 79 78 78 57 46 30 30 19 15 18 20 18 20 23 16 29 37 30 40 37 31 30 29 20 18 25 29 28 26 22 22 32 34 31 27 28
81 82 81 80 81 82 84 81 74 70 60 38 33 24 19 21 21 17 16 19 25 24 28 34 36 38 38 41 34 32 28 22 24 19 27 29 36 31 32 31 30 32 33 29 29
83 84 84 80 80 82 71 50 43 34 36 30 29 25 22 18 18 18 17 19 24 26 34 38 34 33 30 26 27 29 31 33 31 28 31 35 39 32 26 26 28 30 31 32 32
84 84 83 81 83 80 64 49 48 37 34 29 26 26 24 24 23 19 18 24 27 31 31 31 35 29 25 30 33 35 37 37 34 32 32 33 40 32 27 30 29 31 34 35 34
82 83 82 82 80 62 53 50 45 39 36 31 28 26 27 26 27 24 22 29 30 33 35 36 31 27 28 34 32 35 36 41 38 39 36 38 49 37 31 24 21 27 32 35 35
81 82 80 78 59 54 51 44 48 41 47 36 34 28 26 30 32 23 23 28 30 36 33 33 27 29 37 35 35 40 38 39 40 46 47 37 54 49 38 24 20 20 26 37 36
82 79 78 69 51 51 47 49 47 42 59 36 33 23 24 30 32 33 24 28 37 42 35 31 33 36 38 37 37 36 39 40 44 51 62 52 58 65 31 26 24 22 21 22 37
84 82 78 63 60 50 49 50 45 36 45 45 35 34 33 31 30 34 33 30 35 38 40 38 31 33 37 32 36 31 34 37 54 58 61 45 54 58 34 26 27 25 22 21 22
84 82 74 42 50 48 50 49 34 55 39 44 41 33 36 36 28 30 40 43 47 29 46 39 38 34 26 32 34 35 48 49 41 58 48 41 40 49 25 25 26 24 22 22 22
82 79 59 32 48 50 51 41 63 46 44 36 35 34 41 29 30 37 50 61 44 43 53 51 37 30 25 37 38 43 46 50 35 53 58 44 40 32 25 24 26 25 23 22 22
78 65 37 25 41 52 48 63 59 44 31 32 34 41 49 36 26 45 54 59 44 44 45 44 38 25 29 29 30 34 42 43 44 54 57 52 35 26 28 30 31 28 26 28 25
63 36 26 20 46 51 54 59 35 27 32 35 44 35 45 28 24 21 54 48 48 43 44 40 31 26 25 29 25 30 33 46 46 38 43 41 43 43 34 37 33 27 29 28 26
62 30 21 20 42 52 59 51 29 23 32 35 41 36 33 30 26 28 54 51 47 42 35 36 37 24 24 30 31 30 30 34 37 44 44 54 42 36 36 38 31 28 25 26 32
46 17 16 25 30 51 46 37 40 31 32 32 34 32 32 33 28 36 54 53 48 41 43 44 45 47 28 22 26 28 31 35 54 42 65 82 65 32 38 29 26 28 27 29 37
24 24 22 18 23 45 41 35 37 36 35 34 40 35 29 32 32 35 58 57 45 42 37 38 38 42 26 42 36 40 39 40 49 78 79 78 46 32 26 27 28 33 34 38 40
40 28 30 27 32 32 31 37 34 39 34 31 34 34 32 32 30 36 56 58 49 44 43 40 48 31 42 39 53 56 48 50 51 90 59 53 39 32 32 33 34 47 48 49 47
40 37 42 26 22 24 25 34 36 37 30 30 38 36 33 32 34 38 38 44 53 43 54 53 65 62 54 52 54 53 55 53 59 54 68 46 48 39 35 36 49 55 54 49 46
45 31 36 32 23 26 36 29 31 28 29 30 34 35 35 36 35 39 41 40 42 56 57 56 61 70 72 56 57 62 56 56 54 50 49 47 49 36 35 59 63 57 50 40 38
74 62 33 43 26 32 34 30 32 29 34 34 37 38 38 39 51 51 48 47 48 51 55 58 72 82 86 65 66 65 58 53 47 42 46 51 40 42 57 57 45 37 36 36 44

GFSSW_sfc_rhum_033.txt.gz
RH
68 67 68 68 68 72 74 75 76 79 80 78 79 80 80 86 82 56 33 41 53 63 60 37 35 32 34 38 45 46 34 40 36 33 25 24 21 22 22 23 21 21 26 29 39
72 72 72 73 75 77 79 80 80 79 78 79 79 79 78 85 68 41 46 50 56 60 28 30 27 27 31 37 44 41 32 21 27 29 26 25 28 23 21 23 22 18 17 20 58
77 74 78 79 80 81 81 81 79 78 77 79 82 82 81 86 46 35 52 52 54 48 36 35 32 34 37 41 42 46 32 31 30 30 33 30 25 26 23 22 21 19 20 22 42
74 76 78 79 80 79 79 80 78 78 77 79 82 86 86 70 24 29 50 50 55 43 29 29 28 34 38 37 31 34 31 31 32 31 30 29 25 24 29 20 24 28 32 37 38
74 80 81 81 81 80 80 81 80 78 78 80 79 83 66 33 27 24 46 35 19 24 25 28 30 37 34 32 26 33 28 27 27 31 32 29 31 25 22 24 32 32 32 35 35
75 81 81 82 82 82 81 80 78 78 82 79 77 80 58 29 18 26 21 17 18 22 28 29 34 35 36 34 34 33 31 28 26 25 31 28 30 29 21 26 34 32 33 32 33
81 80 80 81 82 82 81 81 81 82 80 77 77 61 32 26 21 19 18 20 18 24 29 30 33 28 37 31 32 32 25 25 23 23 27 28 24 25 27 33 36 34 32 30 30
81 80 81 82 81 80 81 82 85 84 81 78 76 55 24 20 23 18 17 18 18 21 26 28 29 35 36 32 30 32 30 30 22 20 25 24 32 34 32 34 38 36 38 32 32
80 81 81 81 81 80 81 81 81 78 75 77 58 45 27 27 20 17 19 20 20 22 25 18 29 38 33 38 35 32 37 31 21 24 31 27 42 32 31 30 34 38 37 32 34
82 83 82 80 80 81 83 79 72 69 61 43 35 22 18 23 22 18 18 20 25 27 28 30 37 36 38 37 26 34 31 27 26 24 30 42 42 32 30 30 34 38 39 37 35
84 84 84 79 79 81 71 51 40 32 33 30 30 26 24 22 19 18 19 22 24 26 34 38 37 34 29 32 30 29 34 34 34 32 35 41 38 34 31 33 36 37 38 37 35
86 84 83 80 80 78 66 46 44 34 35 31 28 28 26 26 23 21 20 25 26 31 33 34 37 29 29 32 34 37 38 39 36 36 36 40 40 35 33 35 36 37 39 38 38
82 83 80 79 79 62 54 50 51 42 36 32 30 27 28 26 29 24 22 30 30 35 36 38 34 29 29 38 34 38 37 42 40 43 38 41 48 39 30 24 24 30 40 40 40
79 80 78 78 62 58 52 48 52 41 46 37 35 30 27 30 32 25 24 29 32 39 41 36 29 32 37 36 38 40 38 41 42 49 45 44 58 47 32 27 25 24 26 40 40
82 76 76 69 50 53 50 54 50 39 39 38 34 25 26 30 33 32 32 33 42 44 39 33 34 35 40 38 40 38 41 44 50 54 63 58 61 68 29 30 28 25 23 24 29
83 82 77 60 57 54 52 53 40 29 33 46 36 36 34 33 31 40 33 30 37 40 37 45 36 36 39 35 36 32 36 42 60 62 61 48 55 59 46 27 29 28 24 24 23
80 82 70 46 51 52 53 45 34 40 41 46 43 35 40 37 30 38 42 43 44 29 44 37 41 33 29 34 34 36 40 36 33 55 45 46 50 51 27 26 25 28 26 26 25
80 68 58 35 52 53 48 42 60 47 47 36 36 39 44 32 31 48 59 60 45 45 55 47 32 32 32 38 39 44 47 41 28 38 50 52 44 35 26 25 25 26 28 27 27
72 60 32 25 48 52 47 54 50 49 34 34 39 44 52 36 27 49 62 59 50 48 35 34 29 24 28 27 30 37 43 46 44 54 55 53 44 33 30 31 33 32 29 31 31
66 32 24 23 51 48 52 60 39 28 34 37 44 38 53 33 25 40 54 53 49 43 44 41 22 26 26 30 26 32 33 46 47 35 37 38 40 44 35 37 36 34 34 33 33
63 20 19 32 40 51 56 53 29 28 34 37 41 38 36 31 25 42 53 52 48 40 37 38 33 20 26 33 33 31 33 39 41 45 43 50 38 35 35 37 37 35 32 33 36
39 19 19 29 34 52 51 39 42 36 34 35 35 34 34 32 26 43 54 55 49 40 39 46 44 39 23 23 30 31 32 35 54 42 64 79 67 34 37 37 34 35 34 40 44
25 23 27 21 24 46 44 37 39 38 37 39 38 35 31 31 29 42 57 58 48 42 45 32 34 35 27 36 40 44 44 45 61 79 78 72 48 38 42 34 31 37 41 49 49
38 25 27 32 38 36 34 37 36 39 35 34 34 34 32 33 33 39 59 60 50 47 42 38 41 27 42 35 49 44 49 51 55 90 69 56 34 26 25 36 34 35 49 56 54
43 40 42 26 23 29 35 37 32 34 31 33 38 37 31 30 35 36 50 62 54 42 56 48 53 60 54 47 50 53 51 55 62 62 63 34 46 35 36 37 37 48 58 52 41
40 31 37 35 24 29 40 35 34 33 27 31 37 36 37 33 31 36 40 40 48 58 58 59 57 74 69 60 62 66 58 57 54 52 53 50 54 38 37 43 56 56 50 37 40
80 65 32 47 28 30 33 31 32 28 37 36 35 40 41 37 49 52 49 48 47 62 58 62 72 83 76 67 62 52 45 50 59 56 53 60 45 45 51 54 56 42 46 51 51

GFSSW_sfc_rhum_036.txt.gz
RH
68 66 67 69 69 71 74 75 75 76 80 79 78 79 79 85 81 55 27 40 52 63 56 34 30 29 33 40 46 42 32 35 37 39 27 25 24 22 25 24 23 21 20 25 35
71 71 72 74 75 77 79 79 78 79 78 79 79 79 77 84 61 33 42 52 58 57 30 30 28 28 32 38 43 37 27 23 28 31 30 28 29 26 24 24 19 21 31 38 45
78 75 78 78 80 80 81 81 79 78 77 79 81 81 81 88 42 31 48 51 54 47 36 36 34 33 32 38 40 47 30 31 32 32 34 30 26 26 27 30 40 40 43 38 38
75 76 78 80 80 79 79 80 78 78 78 79 81 86 86 68 20 27 46 50 52 39 28 28 26 32 36 35 31 39 35 36 35 34 33 30 26 29 41 48 41 40 42 38 38
74 79 81 82 81 80 80 81 80 79 79 81 79 81 64 28 27 20 44 32 20 24 28 31 31 37 34 35 30 35 31 30 30 31 33 33 28 31 38 39 34 31 32 36 38
73 81 82 81 82 82 81 81 79 79 81 79 77 79 57 28 20 21 19 17 19 25 29 29 34 36 34 35 34 37 34 30 27 24 28 29 29 31 36 36 32 32 35 35 36
78 82 80 81 82 82 81 82 80 81 82 77 76 61 30 26 23 22 18 22 21 25 28 31 33 24 36 32 35 36 26 26 24 22 30 32 32 42 40 36 36 39 40 35 37
81 81 81 83 82 81 80 82 84 84 80 77 76 59 22 19 24 17 17 20 19 21 26 29 29 33 34 35 29 32 30 29 24 28 28 25 42 38 37 35 39 38 41 38 37
81 81 81 81 82 80 81 81 81 79 76 75 56 42 24 27 19 19 20 20 23 23 24 21 30 40 35 36 32 33 38 30 23 32 34 34 48 35 33 33 37 41 42 38 39
82 83 83 82 80 80 83 79 71 73 62 47 35 22 19 23 22 19 18 20 23 28 29 31 36 35 38 33 22 41 44 31 28 30 39 40 41 37 34 35 38 41 42 40 38
85 85 85 81 78 79 72 51 38 33 32 29 31 25 26 24 20 19 21 24 25 27 35 38 36 32 32 34 32 31 35 37 35 35 40 43 40 38 37 38 38 41 41 39 36
86 85 85 80 80 78 69 49 40 32 35 33 30 30 27 27 24 22 22 26 26 32 35 34 37 33 32 33 36 38 43 41 38 39 38 43 42 38 37 40 40 41 43 41 38
83 84 82 79 80 66 56 53 55 43 37 34 32 28 30 26 29 27 24 31 31 36 38 41 36 32 31 39 37 40 41 43 41 45 40 40 48 36 28 28 31 35 39 39 40
80 80 77 78 65 60 53 54 55 41 43 38 36 32 28 30 34 28 30 31 34 42 42 40 31 34 37 37 40 45 39 43 46 52 46 45 50 49 32 26 26 24 25 29 38
78 76 76 71 53 56 52 58 53 34 25 39 36 27 28 32 33 37 33 34 44 46 40 35 36 38 42 40 42 40 42 47 52 55 65 59 64 63 31 30 28 26 26 27 25
81 77 75 62 58 57 55 55 35 28 28 48 38 37 35 34 32 39 32 31 37 38 42 46 39 37 41 38 38 36 39 45 63 62 53 51 58 55 37 29 29 30 27 27 26
80 78 74 49 52 56 54 38 32 31 42 49 45 37 41 37 34 42 44 44 42 48 38 34 42 31 34 36 33 38 32 30 26 46 43 51 56 48 37 28 28 30 30 27 29
81 68 58 38 56 56 45 40 49 46 51 37 38 43 46 34 38 55 62 56 47 47 50 39 35 34 31 40 42 48 44 38 22 28 39 52 49 37 27 26 27 30 34 31 32
70 50 28 26 50 51 43 46 45 53 36 36 40 49 55 36 31 51 71 59 52 49 31 33 23 25 27 28 31 41 41 47 44 57 51 46 43 35 32 31 32 37 34 36 35
59 29 26 27 52 46 50 59 41 30 35 38 42 41 56 40 26 43 61 56 51 42 46 40 17 30 27 31 27 33 33 40 47 33 34 36 37 37 37 36 36 38 37 36 36
54 22 21 32 42 49 53 55 31 31 36 39 41 39 41 34 24 40 48 53 50 41 38 38 27 20 27 33 35 27 38 43 44 46 42 48 35 33 30 33 39 37 36 36 39
31 22 22 33 38 54 54 40 40 36 34 35 34 35 34 31 27 44 49 56 48 38 37 46 37 30 21 25 32 35 35 35 54 40 63 77 60 39 36 37 35 37 37 38 45
24 25 29 22 26 48 44 38 39 37 37 40 38 36 32 29 27 46 58 59 47 42 43 37 31 34 20 33 42 44 43 49 64 77 78 71 39 38 45 43 38 41 41 42 53
36 20 26 34 41 40 38 38 38 40 37 36 35 35 32 33 33 43 59 59 50 47 44 37 38 30 46 36 47 49 50 52 54 88 64 55 32 29 38 38 39 41 44 52 57
45 41 46 24 24 32 38 34 28 29 33 35 38 36 30 32 38 39 60 66 53 46 56 45 52 56 53 45 42 42 38 54 60 57 50 24 40 28 31 39 44 45 55 52 44
33 31 39 37 26 45 44 37 30 36 26 29 34 34 35 27 28 34 44 56 53 60 58 61 55 76 60 64 66 67 57 56 50 48 54 49 50 35 37 51 50 54 55 47 51
82 64 34 44 29 35 32 31 33 29 37 36 31 40 42 37 45 50 46 46 46 64 64 66 73 80 62 68 58 45 38 55 61 60 52 56 41 50 54 52 55 52 58 58 56

GFSSW_sfc_rhum_042.txt.gz
RH
67 67 66 67 68 69 72 73 73 74 76 77 78 79 81 85 80 30 14 25 32 62 53 20 18 19 21 29 29 23 22 21 19 16 20 15 13 14 13 12 19 22 25 27 30
71 70 70 71 72 76 78 77 76 75 77 78 78 79 78 84 34 11 34 53 57 62 16 17 16 17 20 24 25 19 21 16 16 18 20 18 16 19 15 18 23 22 22 26 29
75 71 73 76 77 78 78 78 78 77 76 78 80 82 81 67 26 15 52 56 57 43 20 18 17 17 19 22 23 22 20 19 20 21 19 17 20 24 20 29 28 28 25 25 26
75 76 77 77 79 79 78 79 78 77 76 78 80 84 84 41 17 14 56 50 50 19 16 17 16 17 20 18 18 18 21 19 22 20 19 19 21 26 28 31 25 25 23 22 22
73 77 79 79 80 79 79 80 79 77 78 80 79 81 48 16 15 12 46 30 13 17 19 18 15 17 16 17 16 16 18 18 18 22 21 22 27 27 28 24 23 23 23 22 21
74 74 79 80 80 80 80 79 79 79 81 80 78 80 32 13 12 13 13 14 14 17 18 17 18 18 18 18 15 19 18 16 18 20 22 24 28 26 27 22 23 21 21 21 21
74 75 78 79 81 82 80 79 79 81 81 78 76 42 16 15 13 11 12 13 13 14 16 17 15 11 15 18 20 18 14 16 17 19 23 21 27 32 24 22 21 19 18 18 17
75 77 76 78 83 82 80 80 82 83 81 78 76 29 14 12 12 10 11 12 13 14 18 19 18 19 16 20 16 15 15 17 18 19 22 22 20 30 23 20 21 17 16 18 15
76 77 77 80 83 80 78 80 80 78 76 73 34 17 13 23 11 11 11 13 15 16 19 17 20 23 21 16 14 16 10 15 18 21 20 21 25 29 23 22 21 17 16 15 14
77 78 80 84 81 78 79 78 70 66 47 35 23 14 13 12 13 13 11 14 15 18 20 20 18 16 17 14 12 11 13 16 18 21 21 23 26 27 23 22 21 17 16 15 13
80 84 87 83 77 75 55 30 25 22 19 16 16 15 14 14 13 14 15 14 15 16 15 23 16 13 16 18 16 18 20 20 20 24 25 26 25 27 24 22 22 19 15 14 13
86 87 86 80 77 78 46 26 25 26 22 22 20 18 18 16 17 18 14 15 16 17 19 18 16 20 19 20 21 21 21 19 23 27 24 24 26 25 24 22 21 18 16 15 15
84 86 83 77 78 53 34 35 38 29 18 22 21 18 19 16 21 22 17 18 18 20 20 18 22 21 22 23 22 22 21 20 21 28 26 27 26 28 23 20 19 17 16 16 17
85 85 78 75 55 37 34 38 38 30 15 24 23 20 18 20 26 22 19 21 23 22 23 22 22 23 23 22 22 23 23 26 28 27 22 23 13 28 23 24 20 18 17 15 16
80 79 77 78 33 29 38 39 35 27 16 25 23 17 20 22 24 27 20 24 24 26 25 23 24 26 26 24 25 27 28 27 29 25 26 28 25 19 24 24 20 16 15 15 14
76 77 72 46 33 39 37 35 27 19 22 31 25 25 23 22 24 24 19 20 23 26 27 25 26 22 25 27 25 24 24 28 31 28 27 20 24 13 22 19 18 14 15 15 15
78 75 58 36 32 39 35 27 19 20 29 32 29 26 26 26 24 28 25 20 23 24 25 27 26 21 24 24 24 22 21 18 23 29 20 27 30 16 22 18 15 15 15 16 16
76 72 43 27 37 39 28 20 23 27 28 28 27 29 28 25 30 34 31 24 24 21 20 20 27 25 20 23 21 24 22 16 18 14 14 32 27 16 18 18 14 15 16 18 18
77 17 19 18 34 33 23 20 20 27 27 29 27 30 30 22 21 28 31 28 26 22 17 15 17 19 18 19 21 23 21 28 19 23 18 14 15 16 18 18 17 17 19 22 21
20 17 18 18 31 26 22 34 29 22 24 26 31 28 27 30 21 22 26 35 29 25 23 18 12 17 19 19 22 22 22 23 20 18 18 12 16 12 22 20 19 19 20 21 22
18 18 15 20 22 23 22 26 25 23 26 26 29 29 28 30 22 19 22 37 35 24 22 19 15 15 18 21 18 24 21 22 23 20 17 17 13 11 13 14 17 16 17 19 21
22 18 17 20 24 27 26 24 39 24 24 24 24 25 24 22 19 21 23 34 31 23 19 22 16 12 11 18 21 20 16 17 20 21 22 32 26 14 15 16 17 15 16 19 23
16 16 16 15 20 25 27 26 26 23 25 22 25 23 20 21 21 24 35 42 30 26 23 24 18 18 19 27 26 22 21 19 27 32 37 26 18 16 18 19 18 19 17 20 23
16 15 14 17 22 20 23 23 24 26 25 23 21 19 20 20 21 24 33 39 34 33 38 28 22 20 23 25 24 26 29 26 21 39 21 23 16 13 15 17 17 18 20 20 21
25 26 25 14 15 19 17 18 18 20 21 21 21 18 16 17 19 20 33 38 35 46 35 29 26 24 20 22 22 20 19 24 27 20 24 19 16 14 13 15 16 17 22 25 25
19 19 20 17 16 15 28 17 12 19 16 18 17 20 18 15 17 19 28 31 28 42 36 37 31 38 28 36 36 35 28 28 25 24 23 21 25 18 17 19 19 21 24 26 26
36 25 21 29 17 16 18 20 20 19 23 21 18 21 21 21 21 26 26 28 26 32 37 36 36 37 37 29 27 28 23 21 22 24 23 26 19 23 23 25 23 26 27 29 30

GFSSW_sfc_rhum_045.txt.gz
RH
66 68 70 70 68 68 69 70 72 73 74 75 77 78 81 85 79 30 12 26 30 62 58 16 16 14 16 22 22 19 26 23 19 15 18 12 11 12 10 14 16 18 21 24 25
69 67 68 69 70 72 75 75 74 74 75 77 77 79 78 82 34 10 36 56 58 62 14 14 14 13 16 19 19 19 25 19 14 14 16 14 13 14 13 15 18 18 19 22 25
74 70 71 73 74 76 77 76 75 75 77 77 79 82 81 66 24 11 51 58 56 42 14 14 13 14 17 17 17 17 21 17 18 17 15 13 16 18 16 25 24 23 21 21 22
74 76 77 77 77 78 77 78 77 77 77 77 80 84 84 37 19 12 50 54 53 18 13 13 12 14 17 17 13 18 17 16 19 16 15 15 17 22 24 27 20 21 19 18 19
74 77 78 79 79 78 78 78 78 78 77 80 80 79 48 22 12 10 40 31 12 14 14 15 11 13 15 14 13 13 15 14 16 17 18 18 20 23 24 21 19 19 19 18 17
74 75 77 80 80 80 80 79 78 78 80 81 78 82 41 15 10 10 10 10 12 13 13 12 13 13 13 14 13 14 13 14 16 18 19 21 24 23 23 19 19 19 19 18 17
75 76 76 79 80 81 79 79 79 80 81 79 77 42 19 14 10 9 10 11 12 13 15 13 11 11 11 14 14 12 13 14 15 16 19 19 24 24 21 18 18 17 16 16 15
74 76 78 77 81 81 81 80 81 82 80 79 78 29 14 11 9 9 9 10 11 12 15 15 12 12 12 13 12 12 11 16 16 16 19 20 17 24 19 18 18 16 15 16 13
76 76 77 77 81 82 81 79 79 78 76 73 40 23 12 18 9 9 9 11 12 13 15 14 16 16 16 14 11 13 9 12 20 16 17 19 19 24 19 18 19 16 15 14 13
77 78 79 82 83 81 79 77 71 69 52 27 18 14 11 10 12 11 10 12 12 14 17 18 15 15 13 11 12 11 10 9 13 18 18 19 19 23 21 20 20 16 15 14 13
79 81 84 84 83 79 60 29 28 24 17 16 12 13 11 10 11 12 12 12 12 13 14 16 16 13 9 12 13 12 13 13 13 18 22 18 17 21 22 22 21 18 15 14 12
84 84 86 85 82 77 44 23 25 23 19 17 15 14 13 11 14 15 12 14 14 14 14 15 14 16 15 16 17 16 16 16 15 19 21 18 20 18 21 22 20 19 15 14 13
84 86 87 83 77 52 27 26 27 22 15 19 16 14 15 13 16 18 15 14 14 15 14 15 20 18 18 20 20 19 19 15 16 22 20 24 21 19 20 20 19 17 16 14 14
83 87 84 78 61 24 28 29 29 27 15 20 19 17 16 17 22 18 17 20 17 18 18 16 18 19 20 19 18 20 19 20 22 25 19 19 13 22 21 23 20 18 16 15 16
86 86 82 91 26 23 30 29 27 26 17 20 20 15 16 18 22 24 17 21 21 18 20 21 21 22 23 20 20 23 24 24 26 24 19 18 24 18 19 23 20 18 17 16 14
80 79 76 44 29 30 28 28 26 19 23 26 21 21 20 20 20 20 17 17 20 22 20 20 21 20 20 23 22 23 23 23 24 22 25 15 20 14 20 16 16 15 15 14 13
77 76 65 28 26 30 28 25 18 19 22 26 25 23 20 21 20 22 21 18 20 22 21 20 21 19 20 24 23 23 23 21 29 33 23 18 20 12 16 14 13 14 14 13 13
78 74 46 24 27 31 25 20 22 18 18 26 24 23 24 22 23 24 24 22 17 16 15 16 24 22 19 21 20 19 20 17 23 16 15 23 21 15 14 14 14 13 12 14 15
82 22 20 19 28 27 22 18 20 20 23 25 25 26 24 22 20 22 21 21 20 16 17 14 16 19 18 18 18 21 19 22 16 12 17 12 14 16 14 15 14 14 15 18 18
19 17 18 15 23 24 21 28 22 22 22 24 26 24 23 24 21 20 20 27 24 19 17 14 13 15 18 17 19 20 18 22 20 21 20 11 13 12 18 16 15 15 16 18 19
16 18 13 16 18 20 22 23 22 20 23 24 25 27 22 24 21 18 17 30 29 20 18 15 13 16 15 18 15 20 17 17 19 16 18 19 14 10 12 12 14 14 14 16 17
19 16 14 16 19 18 18 21 36 22 22 22 22 23 21 22 19 20 19 26 28 21 18 17 17 13 11 16 17 18 16 15 21 20 19 25 24 10 11 12 13 12 12 13 15
16 14 13 15 18 16 23 23 21 23 22 21 22 22 19 20 22 18 23 37 29 24 21 20 16 19 19 22 20 16 14 14 15 28 34 28 19 11 13 14 14 17 16 16 15
12 16 13 15 15 14 17 19 22 22 21 18 16 17 18 18 18 20 23 34 30 26 36 28 21 18 22 21 22 21 20 19 18 29 22 20 17 14 13 16 13 14 14 14 17
16 21 20 13 12 14 15 16 16 19 17 17 16 16 14 14 14 14 20 31 30 42 29 26 24 18 18 16 17 18 18 16 21 19 21 18 17 14 14 15 14 15 16 19 20
16 16 15 13 12 12 21 12 11 13 12 14 14 14 12 12 15 16 19 20 20 32 29 28 28 28 24 19 24 25 21 20 19 18 17 18 20 15 18 16 16 16 18 20 21
18 15 21 28 14 15 17 16 15 14 17 15 14 15 16 18 17 18 20 21 21 24 30 28 31 35 35 23 22 27 22 20 19 17 20 26 21 18 21 20 21 21 21 23 23

GFSSW_sfc_rhum_048.txt.gz
RH
67 69 71 73 73 70 69 69 71 73 74 74 76 78 82 85 80 37 23 30 37 62 59 25 19 21 22 38 38 39 51 42 32 31 26 19 17 14 15 19 20 22 28 34 30
68 66 67 69 69 70 72 74 74 74 74 76 78 78 80 84 49 30 40 58 61 62 19 16 19 18 28 35 34 36 50 34 22 21 24 19 20 19 20 21 24 24 25 27 30
75 69 69 69 71 73 76 76 75 75 75 77 80 84 83 73 41 16 49 52 55 48 17 14 15 18 32 30 29 29 36 25 22 23 19 20 22 21 27 36 29 30 27 26 28
74 75 74 75 76 77 77 77 77 76 77 76 81 85 84 50 25 14 47 50 50 27 14 13 16 28 33 30 24 28 21 22 28 22 20 22 21 26 32 34 24 30 27 22 24
74 76 77 78 78 78 78 78 78 77 77 79 80 81 57 32 14 12 42 34 15 13 14 17 16 27 26 23 20 23 20 17 21 25 23 23 27 28 29 25 22 22 24 23 22
73 75 76 78 79 79 79 80 78 77 79 80 79 82 50 26 10 9 10 11 12 14 14 16 16 15 18 20 21 21 18 18 20 20 23 26 30 29 27 23 22 22 24 22 21
73 76 76 78 80 80 80 79 78 80 80 78 77 52 30 16 10 10 10 13 13 15 19 15 14 15 18 23 21 16 18 19 21 20 23 25 31 31 24 22 22 22 23 22 20
73 75 76 78 78 81 80 80 81 83 79 78 81 44 20 11 11 8 9 10 13 15 19 21 20 20 20 19 16 16 16 29 19 20 24 25 32 29 23 23 24 21 22 22 18
74 75 76 78 80 81 80 80 80 78 75 75 54 35 15 23 10 9 11 11 13 14 23 12 22 26 28 24 22 20 20 20 28 19 23 26 34 30 22 22 25 22 22 20 18
77 79 78 80 82 81 80 79 72 69 56 33 26 19 11 10 12 11 11 12 15 19 20 25 24 26 25 22 26 21 20 14 21 22 21 26 28 30 25 24 26 24 21 20 18
79 80 82 84 81 80 74 48 35 36 25 18 12 13 10 10 12 11 11 12 14 18 24 26 28 27 20 22 20 18 17 18 17 23 31 30 27 23 28 28 30 28 21 21 18
82 85 85 83 83 86 66 28 29 26 21 15 14 13 11 11 14 14 12 15 18 21 18 26 27 22 19 20 22 20 20 21 23 21 28 27 25 24 27 29 30 27 23 20 18
84 85 85 84 86 69 34 28 27 25 21 17 13 13 14 13 15 19 16 17 18 19 17 22 22 18 17 25 21 22 25 24 22 26 24 30 35 30 26 27 26 24 24 20 19
83 85 84 83 70 25 28 26 29 29 23 22 18 16 15 17 23 18 17 22 19 20 21 21 20 19 27 21 19 29 25 23 24 32 38 29 38 28 29 31 27 26 26 23 21
83 87 87 91 54 25 30 29 30 33 28 19 20 15 15 18 24 25 19 22 25 21 29 30 27 29 27 23 22 30 31 29 32 35 34 27 37 32 29 34 29 26 24 24 23
81 84 81 56 45 31 28 30 32 29 31 25 20 20 20 19 19 21 18 21 22 24 23 24 23 24 24 23 24 25 28 31 34 37 44 23 30 34 32 26 26 23 22 22 22
77 78 74 35 33 30 30 32 28 26 21 28 24 22 20 22 20 21 22 22 28 33 30 22 22 21 21 27 30 31 38 45 51 56 44 22 29 25 22 19 20 21 21 21 21
78 77 55 24 28 33 30 30 35 17 24 23 22 22 24 21 22 23 26 28 25 21 25 25 34 25 21 27 30 32 34 39 39 36 28 28 36 24 20 19 20 19 20 20 20
82 37 25 23 29 31 31 30 30 27 21 23 24 26 26 23 22 24 24 25 21 19 28 22 28 21 19 19 25 30 34 33 26 18 26 24 25 22 20 20 20 20 20 24 22
32 22 25 18 26 29 32 32 25 22 21 24 26 25 24 26 24 25 24 28 25 20 22 23 23 20 20 22 24 30 25 35 33 36 37 23 25 32 27 23 21 20 23 25 26
33 23 17 18 20 26 28 27 23 20 25 25 26 27 24 25 25 23 20 32 29 22 23 22 22 25 24 25 28 31 25 25 28 29 33 36 31 18 19 19 21 19 20 22 25
31 22 19 19 26 23 24 22 38 22 22 23 24 25 25 26 25 27 23 33 32 26 25 25 30 26 23 19 19 26 24 22 38 39 43 52 44 15 16 17 17 18 18 21 24
26 23 18 19 25 19 23 23 21 23 23 23 23 24 23 26 34 26 28 41 38 31 34 32 28 34 33 34 27 23 19 21 22 42 56 57 36 16 17 19 19 24 24 22 25
19 23 20 20 20 17 21 20 24 24 22 18 17 19 21 22 25 28 28 36 41 32 33 39 34 31 44 33 33 29 26 22 26 59 36 36 25 21 20 25 22 23 23 25 24
23 32 25 20 17 15 18 18 19 21 18 17 18 18 19 23 20 20 26 36 34 47 39 37 38 29 27 25 22 22 23 22 22 24 34 27 26 20 24 24 22 22 24 26 25
27 25 20 18 12 13 26 14 14 13 14 15 17 14 17 19 21 23 27 27 30 41 38 37 42 36 36 23 26 28 26 26 25 24 23 24 27 25 26 24 24 24 27 28 28
23 22 32 35 18 18 22 16 14 15 16 14 16 20 19 23 20 22 24 25 26 36 40 38 48 53 60 32 33 44 32 30 32 27 27 34 32 31 31 28 29 32 31 29 30